This is the latest recevied weather packets stored in our database for station/object KA9CBS. If no packets are shown the sender has not sent any weather packets the latest 10 day(s).
| Time | Temp. | Humidity | Pressure | Rain* | Wind** | Luminosity | Snow |
|---|---|---|---|---|---|---|---|
| 1777677236 | 15° C | 47% | 1016.8 hPa | 0 mm | - | 56 W/m² | - |
| 1777676934 | 15° C | 45% | 1016.9 hPa | 0 mm | - | 46 W/m² | - |
| 1777676633 | 15° C | 44% | 1016.8 hPa | 0 mm | - | 68 W/m² | - |
| 1777676330 | 15° C | 43% | 1017.2 hPa | 0 mm | - | 203 W/m² | - |
| 1777676028 | 15° C | 43% | 1017.2 hPa | 0 mm | - | 85 W/m² | - |
| 1777675723 | 15.56° C | 46% | 1017.1 hPa | 0 mm | - | 51 W/m² | - |
| 1777675421 | 15.56° C | 45% | 1017.1 hPa | 0 mm | - | 58 W/m² | - |
| 1777675117 | 15° C | 47% | 1017.2 hPa | 0 mm | - | 54 W/m² | - |
| 1777674813 | 15° C | 46% | 1017.4 hPa | 0 mm | - | 54 W/m² | - |
| 1777674510 | 15° C | 44% | 1017.6 hPa | 0 mm | - | 55 W/m² | - |
| 1777674208 | 15° C | 46% | 1017.5 hPa | 0 mm | - | 57 W/m² | - |
| 1777673904 | 15° C | 45% | 1017.4 hPa | 0 mm | - | 61 W/m² | - |
| 1777673600 | 15° C | 44% | 1017.8 hPa | 0 mm | - | 78 W/m² | - |
| 1777673299 | 14.44° C | 48% | 1017.7 hPa | 0 mm | - | 120 W/m² | - |
| 1777672995 | 14.44° C | 46% | 1017.8 hPa | 0 mm | - | 93 W/m² | - |
| 1777672692 | 14.44° C | 45% | 1017.8 hPa | 0 mm | - | 74 W/m² | - |
| 1777672388 | 14.44° C | 52% | 1017.9 hPa | 0 mm | - | 96 W/m² | - |
| 1777672083 | 15° C | 49% | 1018 hPa | 0 mm | - | 109 W/m² | - |
| 1777671779 | 15° C | 45% | 1017.8 hPa | 0 mm | - | 142 W/m² | - |
| 1777671475 | 15.56° C | 52% | 1017.9 hPa | 0 mm | - | 181 W/m² | - |
| 1777671172 | 15.56° C | 44% | 1017.9 hPa | 0 mm | - | 84 W/m² | - |
| 1777670868 | 15.56° C | 46% | 1018 hPa | 0 mm | - | 73 W/m² | - |
| 1777670564 | 14.44° C | 49% | 1018.1 hPa | 0 mm | - | 88 W/m² | - |
| 1777670262 | 14.44° C | 48% | 1018.2 hPa | 0 mm | - | 130 W/m² | - |
| 1777669959 | 15° C | 46% | 1018.3 hPa | 0 mm | - | 138 W/m² | - |
* Rain latest hour (hover to see other rain measurements)
** Current wind speed in m/s (hover to see current wind gust speed)